Content
SEND FEEDBACK

Daily
Averages
Monthly
Summary
United States of America

FAYETTEVILLE, TENNESSEE


Home > North America > United States > Tennessee
Elevation: 700 feet     Latitude: 35 10N     Longitude: 086 33W

WEATHER
 
SELECT A DAY
Number of Records: 309,541;   Date Range: 4/22/02 - 12/19/14
 
SHARE

PRINT THIS DATA

[ ← Previous Day ]
WEATHER ALMANAC - JULY 3, 2014
[ Next Day → ]
[ °C ]   °F
Weather ElementAverageHighLow
Temperature73.6 °F82.4 °F (2:15 pm)62.6 °F (11:55 pm)
Dewpoint55.1 °F64.4 °F (12:35 am)44.6 °F (10:35 am)
Humidity56.1 %83 % (2:35 am)30 % (10:35 am)
Barometer30.09 in30.15 in (10:55 pm)30.02 in (2:15 am)
Wind Speed7.4 mph15 mph (5:15 pm)
Wind Gust19.6 mph (1:55 pm)
Weather ElementAverage
Visibility10 mi
Wind DirectionWNW (281.6 °)

Weather ElementTotal
Precipitation---
Cooling Degree Days7.5 (Base 65)
Growing Degree Days22.5 (Base 50)
Averaged from 70 records on July 3, 2014
WEATHER CONDITIONS BREAKOUT
WIND DIRECTION BREAKOUT
WEATHER BY HOUR - JULY 3, 2014
[ °C ]   °F
Local TimeTemperatureDewpointHumidityBarometerVisibilityWind DirectionWind SpeedGust SpeedPrecipitationEventsConditions
12:35 AM73.4 °F64.4 °F73 %30.04 in10.0 miWNW (290°)4.6 mphClear
12:55 AM73.4 °F64.4 °F73 %30.04 in10.0 miWest (260°)3.5 mphClear
1:15 AM73.4 °F64.4 °F73 %30.03 in10.0 miWSW (240°)3.5 mphClear
1:35 AM71.6 °F64.4 °F78 %30.03 in10.0 miCalmClear
1:55 AM71.6 °F64.4 °F78 %30.03 in10.0 miCalmClear
2:15 AM71.6 °F64.4 °F78 %30.02 in10.0 miWNW (300°)3.5 mphClear
2:35 AM69.8 °F64.4 °F83 %30.02 in10.0 miCalmClear
2:55 AM69.8 °F64.4 °F83 %30.02 in10.0 miNW (320°)3.5 mphScattered Clouds
3:15 AM69.8 °F62.6 °F78 %30.02 in10.0 miNNW (330°)5.8 mphScattered Clouds
3:35 AM69.8 °F62.6 °F78 %30.03 in10.0 miNNW (340°)4.6 mphClear
3:55 AM69.8 °F62.6 °F78 %30.04 in10.0 miNNW (340°)3.5 mphClear
4:15 AM68.0 °F62.6 °F83 %30.04 in10.0 miNorth (350°)5.8 mphClear
4:35 AM68.0 °F62.6 °F83 %30.04 in10.0 miNNW (340°)4.6 mphClear
4:55 AM68.0 °F62.6 °F83 %30.04 in10.0 miNorth (350°)4.6 mphClear
5:15 AM68.0 °F62.6 °F83 %30.04 in10.0 miNorth (360°)4.6 mphClear
5:35 AM68.0 °F60.8 °F78 %30.05 in10.0 miNorth (360°)4.6 mphClear
5:55 AM66.2 °F60.8 °F83 %30.06 in10.0 miNNW (340°)4.6 mphClear
6:15 AM66.2 °F60.8 °F83 %30.06 in10.0 miNorth (350°)4.6 mphClear
6:35 AM66.2 °F60.8 °F83 %30.06 in10.0 miNorth (350°)5.8 mphClear
6:55 AM68.0 °F60.8 °F78 %30.08 in10.0 miNorth (350°)6.9 mphClear
7:15 AM69.8 °F60.8 °F73 %30.08 in10.0 miNorth (360°)5.8 mphClear
7:35 AM69.8 °F59.0 °F68 %30.09 in10.0 miNorth (350°)8.1 mphClear
7:55 AM71.6 °F59.0 °F64 %30.10 in10.0 miNorth (360°)6.9 mphClear
8:15 AM71.6 °F59.0 °F64 %30.10 in10.0 miNNE (20°)5.8 mphClear
8:55 AM73.4 °F55.4 °F53 %30.11 in10.0 miNNE (20°)6.9 mphClear
9:15 AM75.2 °F53.6 °F47 %30.11 in10.0 miNNE (20°)6.9 mphClear
9:35 AM77.0 °F51.8 °F41 %30.11 in10.0 miNorth (10°)6.9 mphClear
9:55 AM77.0 °F51.8 °F41 %30.11 in10.0 miNNE (20°)8.1 mphClear
10:15 AM77.0 °F48.2 °F36 %30.11 in10.0 miNorth (10°)9.2 mphClear
10:35 AM78.8 °F44.6 °F30 %30.12 in10.0 miNorth (350°)10.4 mphClear
10:55 AM78.8 °F46.4 °F32 %30.11 in10.0 miNNE (20°)8.1 mphClear
11:15 AM78.8 °F46.4 °F32 %30.12 in10.0 miNorth (350°)12.7 mph16.1 mphClear
11:35 AM80.6 °F46.4 °F30 %30.12 in10.0 miNorth (350°)8.1 mphClear
11:55 AM80.6 °F48.2 °F32 %30.12 in10.0 miNNE (20°)5.8 mphClear
12:15 PM80.6 °F46.4 °F30 %30.12 in10.0 miNNW (340°)12.7 mphClear
12:35 PM80.6 °F46.4 °F30 %30.11 in10.0 miNNW (330°)13.8 mphClear
12:55 PM80.6 °F46.4 °F30 %30.11 in10.0 miNorth (360°)13.8 mph18.4 mphClear
1:15 PM80.6 °F48.2 °F32 %30.10 in10.0 miNW (320°)9.2 mphClear
1:35 PM80.6 °F48.2 °F32 %30.10 in10.0 miNNW (340°)10.4 mphClear
1:55 PM80.6 °F46.4 °F30 %30.10 in10.0 miNorth (350°)13.8 mph19.6 mphClear
2:15 PM82.4 °F50.0 °F32 %30.09 in10.0 miNNW (340°)13.8 mph17.3 mphClear
2:35 PM82.4 °F50.0 °F32 %30.10 in10.0 miNNW (330°)11.5 mphClear
2:55 PM82.4 °F48.2 °F30 %30.09 in10.0 miNW (320°)10.4 mph16.1 mphScattered Clouds
3:15 PM82.4 °F50.0 °F32 %30.10 in10.0 miNNW (340°)12.7 mph17.3 mphScattered Clouds
3:35 PM80.6 °F50.0 °F34 %30.10 in10.0 miNNW (330°)10.4 mphClear
3:55 PM78.8 °F50.0 °F36 %30.10 in10.0 miNNW (340°)10.4 mphScattered Clouds
4:15 PM78.8 °F51.8 °F39 %30.09 in10.0 miNorth (350°)9.2 mphScattered Clouds
4:35 PM80.6 °F51.8 °F37 %30.09 in10.0 miNNW (340°)11.5 mphScattered Clouds
4:55 PM80.6 °F51.8 °F37 %30.08 in10.0 miNW (320°)10.4 mph16.1 mphScattered Clouds
5:15 PM80.6 °F51.8 °F37 %30.08 in10.0 miNNW (340°)15.0 mphClear
5:35 PM80.6 °F51.8 °F37 %30.08 in10.0 miNNW (340°)13.8 mph18.4 mphClear
5:55 PM78.8 °F51.8 °F39 %30.09 in10.0 miNW (320°)10.4 mphClear
6:15 PM78.8 °F51.8 °F39 %30.09 in10.0 miNorth (360°)13.8 mphClear
6:35 PM77.0 °F51.8 °F41 %30.09 in10.0 miNNW (340°)12.7 mph19.6 mphClear
6:55 PM75.2 °F51.8 °F44 %30.09 in10.0 miNNW (340°)11.5 mphClear
7:15 PM73.4 °F51.8 °F47 %30.09 in10.0 miNNW (340°)9.2 mphClear
7:35 PM73.4 °F51.8 °F47 %30.10 in10.0 miNNW (340°)9.2 mphClear
7:55 PM71.6 °F53.6 °F53 %30.10 in10.0 miNorth (350°)6.9 mphScattered Clouds
8:15 PM69.8 °F55.4 °F60 %30.11 in10.0 miNNW (340°)5.8 mphMostly Cloudy
8:35 PM69.8 °F55.4 °F60 %30.12 in10.0 miNorth (350°)6.9 mphScattered Clouds
8:55 PM68.0 °F55.4 °F64 %30.12 in10.0 miNorth (350°)4.6 mphScattered Clouds
9:15 PM68.0 °F55.4 °F64 %30.13 in10.0 miNorth (360°)4.6 mphClear
9:35 PM68.0 °F55.4 °F64 %30.14 in10.0 miNorth (350°)3.5 mphClear
9:55 PM68.0 °F55.4 °F64 %30.14 in10.0 miCalmClear
10:15 PM64.4 °F55.4 °F73 %30.14 in10.0 miNNW (340°)3.5 mphClear
10:35 PM64.4 °F55.4 °F73 %30.14 in10.0 miNNW (330°)3.5 mphClear
10:55 PM64.4 °F55.4 °F73 %30.15 in10.0 miNNW (330°)4.6 mphClear
11:15 PM64.4 °F55.4 °F73 %30.15 in10.0 miNNW (340°)3.5 mphClear
11:35 PM64.4 °F55.4 °F73 %30.15 in10.0 miNNW (330°)3.5 mphClear
11:55 PM62.6 °F55.4 °F77 %30.15 in10.0 miNNW (340°)5.8 mphClear
Hourly data recorded from KMDQ, located miles away from Fayetteville, Tennessee







STORIES FROM OUR PARTNERS